Regional Weather Roundup
Issued by NWS Mt. Holly, NJ

Home | Current Version | Previous Version | Text Only | Print | Product List | Glossary On
Versions: 1 2 3 4 5 6 7 8 9 10 11 12 13 14 15 16 17 18 19 20 21 22 23 24 25 26 27 28
000
ASUS41 KPHI 240512
RWRPHI

REGIONAL WEATHER ROUNDUP
NATIONAL WEATHER SERVICE MOUNT HOLLY NJ
100 AM EDT THU AUG 24 2017

NOTE:  "FAIR" INDICATES FEW OR NO CLOUDS BELOW 12,000 FEET WITH NO
SIGNIFICANT WEATHER AND/OR OBSTRUCTIONS TO VISIBILITY.

 * = STATION DOES NOT REPORT PRECIPITATION (E.G. RAIN, SNOW, ETC.)
        OR FOG.

NJZ015>026-240600-
SOUTHERN NEW JERSEY

CITY           SKY/WX    TMP DP  RH WIND       PRES   REMARKS
POMONA         CLEAR     67  60  78 CALM      29.89S
WILDWOOD*      PTCLDY    68  62  81 CALM      29.90S
MILLVILLE      CLEAR     64  62  93 CALM      29.90S
WRIGHTSTOWN    CLEAR     65  58  78 CALM      29.87S
MOUNT HOLLY      N/A     61  60  97 CALM      29.89S
TRENTON        CLEAR     64  59  83 CALM      29.89S

$$
NJZ001>014-240600-
NORTHERN NEW JERSEY

CITY           SKY/WX    TMP DP  RH WIND       PRES   REMARKS
SUSSEX         CLEAR     57  56  96 CALM      29.90S
ANDOVER*         N/A     58  57  97 SW3       29.91S
MORRISTOWN     CLEAR     57  57 100 CALM      29.90S
NEWARK         CLEAR     71  54  54 CALM      29.88S
TETERBORO      CLEAR     68  55  63 CALM      29.88R
CALDWELL       CLEAR     61  59  93 CALM      29.90R
SOMERVILLE     CLEAR     61  60  97 CALM      29.88S
ALLAIRE*       CLEAR     63  59  87 W3        29.90S
TOMS RIVER*    PTCLDY    60  57  89 CALM      29.90R

$$
PAZ043-044-047-054-055-060>062-066>071-240600-
EASTERN PENNSYLVANIA

CITY           SKY/WX    TMP DP  RH WIND       PRES   REMARKS
PHILADELPHIA   CLEAR     68  57  68 N7        29.90S
NORTH PHILA    CLEAR     67  57  70 NW3       29.91S
BLUE BELL*     CLEAR     57  57 100 CALM      29.92S
DOYLESTOWN     CLEAR     60  57  89 CALM      29.90S
QUAKERTOWN*    CLEAR     59  57  94 CALM      29.92S
PERKASIE*      FAIR      57  57 100 CALM      29.92S
POTTSTOWN      CLEAR     59  59 100 CALM      29.93S
LANCASTER      CLEAR     61  60  97 CALM      29.92S
COATESVILLE    CLEAR     61  57  88 W5        29.94S
READING        CLEAR     63  61  93 CALM      29.91S
ALLENTOWN      CLEAR     61  57  87 W3        29.91R
MOUNT POCONO   CLEAR     55  53  93 NW5       29.95R
HAZLETON         N/A     50  43  76 CALM      29.99R
LEHIGHTON      FAIR      54  54 100 CALM      29.94R
WILKES BARRE   CLEAR     65  55  70 N5        29.93R

$$
DEZALL-MDZ008-012-015-019-020-240600-
DELAWARE AND EASTERN MARYLAND

CITY           SKY/WX    TMP DP  RH WIND       PRES   REMARKS
WILMINGTON     CLEAR     64  61  90 W5        29.91S
DOVER          CLEAR     68  61  77 NW5       29.88F
GEORGETOWN     MOCLDY    69  64  84 CALM      29.90S
EASTON         CLEAR     67  64  90 CALM      29.94S
ABERDEEN       CLEAR     62  62  98 CALM      29.92S
PATUXENT       CLEAR     68  68 100 W5        29.90S
OCEAN CITY     MOCLDY    70  69  97 N3        29.88F
WALLOPS ISLAND CLOUDY    71  69  93 N5        29.89S
CAMBRIDGE      CLEAR     66  66 100 CALM      29.90S
SALISBURY      CLOUDY    70  68  93 CALM      29.89F

$$
PAZ001-021-NYZ056-072-MDZ011-DCZ001-240600-
OTHER NEARBY LOCATIONS

CITY           SKY/WX    TMP DP  RH WIND       PRES   REMARKS
HARRISBURG     CLEAR     66  59  78 NE3       29.92R
STATE COLLEGE  CLEAR     61  54  78 W3        29.98R
WILLIAMSPORT   CLEAR     60  58  92 NW3       29.93R
BINGHAMTON     CLEAR     57  52  83 W3        29.94R
NEW YORK CITY  CLEAR     71  52  50 CALM      29.91R
BALTIMORE      MOCLDY    67  62  84 CALM      29.92R
WASHINGTON DC  PTCLDY    73  61  65 N7        29.92F

$$




USA.gov is the U.S. government's official web portal to all federal, state and local government web resources and services.